Location: Torch Lake Township
(45.0753°N, 85.3586°W)
Time: 15:30:31
(UTC-05:00)

Amateur Radio Satellites - All Passes

Search period start: 12 February 2016 15:00
Search period end: 13 February 2016 15:00
Location: Torch Lake Township, 45.0753°N, 85.3586°W

Satellite Date Start Highest point End Downlink Frequencies (MHz)
Time Altitude Azimuth
SO-50 12 Feb 15:05:18 15:07:47 14° 252° (WSW) 15:10:14 436.795
Cosmos 2491 12 Feb 15:05:25 15:13:48 55° 90° (E) 15:22:12 435.465 / 435.565
AO-7 12 Feb 15:07:01 15:15:20 72° 67° (ENE) 15:23:40 29.400- 29.500
JAS-2 12 Feb 15:07:45 15:13:21 22° 269° (W) 15:18:38 435.910
ITAMSAT 1 12 Feb 15:13:19 15:18:07 38° 262° (W) 15:23:00 435.822/435.867
ISS 12 Feb 15:17:11 15:20:07 32° 140° (SE) 15:23:04 145.825
M-CUBED/EXP-1 PRIME 12 Feb 15:20:23 15:23:42 40° 67° (ENE) 15:26:54 437.505
AUBIESAT-1 12 Feb 15:27:32 15:30:50 40° 67° (ENE) 15:34:02 437.475
SWISSCUBE 12 Feb 15:37:55 15:42:25 40° 291° (WNW) 15:46:53 437.505
KKS-1 12 Feb 15:38:00 15:41:56 30° 96° (E) 15:45:49 437.445
MOZHAYETS 4 12 Feb 15:53:05 15:56:26 19° 92° (E) 15:59:48
O/OREOS (USA 219) 12 Feb 15:59:57 16:01:49 12° 45° (NE) 16:03:42 437.305
BEESAT 3 12 Feb 16:02:07 16:04:05 13° 110° (ESE) 16:06:04 437.485
HORYU 2 12 Feb 16:04:49 16:09:12 70° 74° (ENE) 16:13:37 437.375
ITUPSAT 1 12 Feb 16:17:01 16:20:36 21° 298° (WNW) 16:24:11 437.325
BEESAT 12 Feb 16:23:46 16:27:01 18° 299° (WNW) 16:30:16 436.000
BEESAT 2 12 Feb 16:30:53 16:33:35 18° 112° (ESE) 16:36:20 435.950
Cosmos 2504 12 Feb 16:35:00 16:43:41 89° 263° (W) 16:51:43 435.465 / 435.565
AO-85 12 Feb 16:45:01 16:48:04 15° 26° (NNE) 16:51:01 145.980
RS-15 12 Feb 16:47:30 16:57:23 29° 5° (N) 17:07:37 29.354- 29.394
STARS 12 Feb 16:49:05 16:53:29 89° 288° (WNW) 16:57:52 437.465
ISS 12 Feb 16:53:21 16:56:30 45° 338° (NNW) 16:59:38 145.825
YUBILEINY 12 Feb 16:55:37 17:01:08 19° 285° (WNW) 17:06:39 435.215
BRITE-PL 12 Feb 16:56:15 16:59:05 14° 58° (ENE) 17:01:51 437.365/2234.400
M-CUBED/EXP-1 PRIME 12 Feb 16:56:48 16:58:32 13° 261° (W) 17:00:15 437.505
AO-7 12 Feb 17:01:54 17:08:46 28° 266° (W) 17:15:41 29.400- 29.500
Cosmos 2491 12 Feb 17:03:10 17:10:59 36° 292° (WNW) 17:18:53 435.465 / 435.565
AUBIESAT-1 12 Feb 17:03:51 17:05:36 13° 261° (W) 17:07:20 437.475
CUTE-I 12 Feb 17:12:47 17:17:27 32° 65° (ENE) 17:22:09 437.470
KKS-1 12 Feb 17:14:38 17:18:27 29° 293° (WNW) 17:22:14 437.445
Cubesat XI-IV 12 Feb 17:27:06 17:32:04 42° 67° (ENE) 17:37:05 437.490
MOZHAYETS 4 12 Feb 17:29:24 17:33:52 48° 289° (WNW) 17:38:19
BEESAT 3 12 Feb 17:37:24 17:41:21 64° 308° (NW) 17:45:20 437.485
O/OREOS (USA 219) 12 Feb 17:37:25 17:42:01 79° 64° (ENE) 17:46:38 437.305
LilacSat-2 12 Feb 17:39:02 17:42:31 35° 71° (ENE) 17:46:00 437.200
HORYU 2 12 Feb 17:44:25 17:46:16 12° 271° (W) 17:48:07 437.375
GOMX 1 12 Feb 17:45:41 17:49:17 19° 63° (ENE) 17:52:47 467.674
HO-68 12 Feb 18:05:20 18:09:47 18° 50° (NE) 18:14:15 435.675
BEESAT 2 12 Feb 18:07:13 18:11:08 50° 310° (NW) 18:15:05 435.950
CUBESAT XI-V 12 Feb 18:18:12 18:22:53 61° 101° (E) 18:27:31 437.345
AO-85 12 Feb 18:24:43 18:29:52 53° 49° (NE) 18:34:35 145.980
GONETS M04 12 Feb 18:26:52 18:32:54 20° 58° (ENE) 18:38:56
STARS 12 Feb 18:28:04 18:29:10 11° 302° (WNW) 18:30:16 437.465
Cosmos 2504 12 Feb 18:30:12 18:35:43 19° 285° (WNW) 18:41:01 435.465 / 435.565
ISS 12 Feb 18:30:43 18:33:28 24° 358° (N) 18:36:13 145.825
BRITE-PL 12 Feb 18:31:06 18:36:47 82° 75° (ENE) 18:42:16 437.365/2234.400
STRAND 1 12 Feb 18:36:19 18:38:44 13° 88° (E) 18:41:09 437.568
PCSat 12 Feb 18:44:22 18:49:16 32° 46° (NE) 18:54:07 145.827
CUTE 1.7 + AOD 2 12 Feb 18:45:42 18:47:29 12° 60° (ENE) 18:49:16 437.475
DOVE 4 12 Feb 18:48:14 18:52:44 35° 69° (ENE) 18:57:00 437.250
AIST 2 12 Feb 18:48:27 18:52:28 49° 120° (ESE) 18:56:31 435.215
CUTE-I 12 Feb 18:52:29 18:57:24 38° 263° (W) 19:02:23 437.470
RS-15 12 Feb 19:02:07 19:13:43 49° 38° (NE) 19:25:33 29.354- 29.394
Cubesat XI-IV 12 Feb 19:07:43 19:12:16 28° 265° (W) 19:16:52 437.490
LilacSat-2 12 Feb 19:14:19 19:16:58 18° 267° (W) 19:19:37 437.200
BEESAT 3 12 Feb 19:18:19 19:19:54 12° 328° (NNW) 19:21:28 437.485
O/OREOS (USA 219) 12 Feb 19:19:10 19:20:45 12° 263° (W) 19:22:20 437.305
CINEMA 3 12 Feb 19:20:47 19:24:27 25° 67° (ENE) 19:28:01 145.822/145.860
GOMX 1 12 Feb 19:21:37 19:26:56 66° 259° (W) 19:32:00 467.674
CANX-2 12 Feb 19:28:51 19:32:43 37° 70° (ENE) 19:36:38 2200.000
Cosmos 2499 12 Feb 19:34:45 19:40:52 21° 59° (ENE) 19:46:39 435.465 / 435.565
HO-68 12 Feb 19:49:13 19:56:22 76° 70° (ENE) 20:03:35 435.675
BEESAT 2 12 Feb 19:49:17 19:49:59 10° 330° (NNW) 19:50:42 435.950
CUBESAT XI-V 12 Feb 19:56:46 19:59:48 17° 299° (WNW) 20:02:48 437.345
FUNcube-1 12 Feb 19:58:14 19:59:16 11° 60° (ENE) 20:00:18 145.935
COMPASS 1 12 Feb 19:59:48 20:03:40 39° 71° (ENE) 20:07:34 437.405
AO-85 12 Feb 20:05:58 20:10:00 24° 249° (WSW) 20:13:47 145.980
ISS 12 Feb 20:07:25 20:10:29 38° 18° (NNE) 20:13:33 145.825
PRISM 12 Feb 20:07:31 20:11:10 28° 96° (E) 20:14:46 437.425
BRITE-PL 12 Feb 20:12:33 20:15:48 15° 272° (W) 20:18:59 437.365/2234.400
STRAND 1 12 Feb 20:13:22 20:18:33 83° 286° (WNW) 20:23:43 437.568
CUTE 1.7 + AOD 2 12 Feb 20:18:33 20:22:45 73° 258° (WSW) 20:27:00 437.475
SEEDS 12 Feb 20:19:19 20:23:30 87° 77° (ENE) 20:27:44 437.485
GONETS M04 12 Feb 20:22:24 20:31:16 82° 81° (E) 20:40:07
Oscar 11 12 Feb 20:23:27 20:27:03 27° 67° (ENE) 20:30:41 145.826/435.025
AAUSAT CUBESAT 2 12 Feb 20:25:09 20:29:14 61° 74° (ENE) 20:33:22 437.432
DOVE 4 12 Feb 20:26:04 20:30:26 29° 265° (W) 20:34:37 437.250
PCSat 12 Feb 20:27:38 20:32:49 46° 246° (WSW) 20:37:58 145.827
AIST 2 12 Feb 20:27:51 20:31:13 23° 319° (NW) 20:34:35 435.215
UWE-3 12 Feb 20:36:53 20:40:47 38° 70° (ENE) 20:44:40 435.000/436.395/437.385
CUBEBUG 2 12 Feb 20:42:33 20:46:46 62° 74° (ENE) 20:50:54 437.445
AIST 1 12 Feb 20:56:23 20:59:41 21° 70° (ENE) 21:02:56
CINEMA 3 12 Feb 20:57:19 21:01:29 35° 263° (W) 21:05:31 145.822/145.860
CANX-2 12 Feb 21:05:29 21:08:42 21° 267° (W) 21:11:58 2200.000
DELFI C3 12 Feb 21:14:13 21:18:03 47° 72° (ENE) 21:21:55 145.870
RS-15 12 Feb 21:14:56 21:26:54 67° 243° (WSW) 21:39:02 29.354- 29.394
HUMSAT D 12 Feb 21:15:41 21:18:51 22° 66° (ENE) 21:22:01 437.325/437.525
ZACube-1 12 Feb 21:23:21 21:27:33 87° 76° (ENE) 21:31:43 437.345
Cosmos 2499 12 Feb 21:26:52 21:35:19 88° 265° (W) 21:43:03 435.465 / 435.565
FUNcube-1 12 Feb 21:30:44 21:34:55 82° 257° (WSW) 21:39:05 145.935
COMPASS 1 12 Feb 21:36:24 21:39:25 19° 268° (W) 21:42:28 437.405
HO-68 12 Feb 21:39:26 21:44:47 22° 269° (W) 21:50:11 435.675
PRISM 12 Feb 21:42:52 21:46:26 27° 293° (WNW) 21:49:57 437.425
ISS 12 Feb 21:43:52 21:46:59 43° 217° (SW) 21:50:05 145.825
VELOX 1 12 Feb 21:48:14 21:50:04 12° 59° (ENE) 21:51:54 145.980
STRAND 1 12 Feb 21:54:38 21:56:56 13° 304° (NW) 21:59:12 437.568
UNISAT 6 12 Feb 21:57:32 21:59:22 12° 89° (E) 22:01:12 437.425
Oscar 11 12 Feb 21:59:17 22:03:05 31° 264° (W) 22:06:57 145.826/435.025
UKube-1 12 Feb 21:59:47 22:02:09 14° 60° (ENE) 22:04:29 .
AAUSAT CUBESAT 2 12 Feb 22:03:21 22:05:10 13° 271° (W) 22:07:00 437.432
AISAT 12 Feb 22:04:06 22:07:08 18° 63° (ENE) 22:10:12 437.250
UWE-3 12 Feb 22:14:19 22:17:25 20° 267° (W) 22:20:30 435.000/436.395/437.385
CUBEBUG 1 12 Feb 22:14:21 22:17:22 18° 63° (ENE) 22:20:24 437.445
DX 1 12 Feb 22:16:15 22:19:46 24° 65° (ENE) 22:23:17 434.975-435.025
GONETS M04 12 Feb 22:20:40 22:27:01 23° 282° (WNW) 22:33:23
CUBEBUG 2 12 Feb 22:21:53 22:23:47 13° 270° (W) 22:25:41 437.445
50 SAT 12 Feb 22:23:29 22:26:36 26° 68° (ENE) 22:29:44 437.505
AIST 1 12 Feb 22:33:25 22:37:26 38° 268° (W) 22:41:24
ESTCUBE 1 12 Feb 22:37:32 22:41:45 40° 69° (ENE) 22:46:00 437.505/2401.250
ANTELSAT 12 Feb 22:40:46 22:44:46 34° 97° (E) 22:48:49 437.575/2403.000
TIGRISAT 12 Feb 22:46:28 22:50:31 37° 98° (E) 22:54:38 435.000
HUMSAT D 12 Feb 22:50:37 22:54:19 34° 263° (W) 22:58:04 437.325/437.525
DELFI C3 12 Feb 22:50:55 22:53:14 15° 269° (W) 22:55:35 145.870
POLYITAN 1 12 Feb 23:07:09 23:09:48 16° 91° (E) 23:12:28 437.675
QB50P2 12 Feb 23:07:32 23:10:19 17° 92° (E) 23:13:05 145.880/145.840
VELOX 1 12 Feb 23:21:25 23:25:54 83° 255° (WSW) 23:30:24 145.980
Cosmos 2499 12 Feb 23:21:56 23:27:04 18° 285° (WNW) 23:32:00 435.465 / 435.565
RS-15 12 Feb 23:30:24 23:36:57 17° 265° (W) 23:43:35 29.354- 29.394
UNISAT 6 12 Feb 23:32:12 23:36:32 69° 287° (WNW) 23:40:57 437.425
UKube-1 12 Feb 23:33:22 23:37:41 66° 258° (WSW) 23:42:01 .
TISAT 1 12 Feb 23:35:01 23:37:48 17° 63° (ENE) 23:40:36 437.305
POPSAT HIP 1 12 Feb 23:35:41 23:39:26 31° 96° (E) 23:43:11 437.405
SPROUT 12 Feb 23:37:10 23:41:14 44° 71° (ENE) 23:45:20 437.525
DUCHIFAT 1 12 Feb 23:38:12 23:41:57 31° 97° (E) 23:45:40 145.980
NANOSAT C BR1 12 Feb 23:38:14 23:42:02 32° 97° (E) 23:45:49 145.865
AISAT 12 Feb 23:38:54 23:43:16 52° 260° (W) 23:47:39 437.250
QB50P1 12 Feb 23:47:49 23:51:51 43° 99° (E) 23:55:51 145.935-145.965
CUBEBUG 1 12 Feb 23:48:58 23:53:18 51° 260° (W) 23:57:39 437.445
DX 1 12 Feb 23:51:43 23:55:47 36° 262° (W) 23:59:52 434.975-435.025
50 SAT 12 Feb 23:57:34 00:00:35 23° 265° (W) 00:03:38 437.505
PHONESAT 2.4 13 Feb 00:08:18 00:10:26 16° 157° (SSE) 00:12:33 2401.200-2431.200
ITUPSAT 1 13 Feb 00:13:53 00:14:42 10° 55° (NE) 00:15:31 437.325
ESTCUBE 1 13 Feb 00:15:08 00:18:42 23° 267° (W) 00:22:18 437.505/2401.250
BEESAT 3 13 Feb 00:16:10 00:19:08 20° 40° (NE) 00:22:04 437.485
ANTELSAT 13 Feb 00:17:47 00:21:22 25° 294° (WNW) 00:24:58 437.575/2403.000
BEESAT 13 Feb 00:19:03 00:20:50 12° 57° (ENE) 00:22:37 436.000
TIGRISAT 13 Feb 00:23:36 00:27:02 23° 294° (WNW) 00:30:30 435.000
BUGSAT 1 13 Feb 00:25:27 00:29:25 53° 100° (E) 00:33:21 437.445
POLYITAN 1 13 Feb 00:41:50 00:45:54 48° 288° (WNW) 00:49:57 437.675
QB50P2 13 Feb 00:42:20 00:46:23 46° 289° (WNW) 00:50:25 145.880/145.840
CUSAT 1 13 Feb 00:43:27 00:49:56 28° 85° (E) 00:56:15 437.405
BEESAT 2 13 Feb 00:46:17 00:49:35 24° 42° (NE) 00:52:52 435.950
SWISSCUBE 13 Feb 01:08:46 01:13:06 36° 68° (ENE) 01:17:28 437.505
TISAT 1 13 Feb 01:09:01 01:13:07 49° 260° (W) 01:17:14 437.305
POPSAT HIP 1 13 Feb 01:11:40 01:15:08 25° 294° (WNW) 01:18:34 437.405
Cosmos 2491 13 Feb 01:13:15 01:20:47 31° 66° (ENE) 01:28:18 435.465 / 435.565
DUCHIFAT 1 13 Feb 01:14:07 01:17:33 25° 294° (WNW) 01:20:58 145.980
NANOSAT C BR1 13 Feb 01:14:16 01:17:39 24° 294° (WNW) 01:21:02 145.865
SPROUT 13 Feb 01:14:26 01:17:26 18° 268° (W) 01:20:27 437.525
QB50P1 13 Feb 01:24:21 01:27:21 19° 296° (WNW) 01:30:21 145.935-145.965
Gurwin Techsat 1B 13 Feb 01:28:46 01:30:21 11° 86° (E) 01:31:55 435.225
AIST 2 13 Feb 01:31:02 01:32:44 12° 31° (NNE) 01:34:27 435.215
DANDE 13 Feb 01:43:36 01:51:07 44° 89° (E) 01:58:56 436.750
PHONESAT 2.4 13 Feb 01:44:10 01:47:11 33° 173° (S) 01:50:11 2401.200-2431.200
ITUPSAT 1 13 Feb 01:46:55 01:51:41 74° 73° (ENE) 01:56:28 437.325
BEESAT 13 Feb 01:53:06 01:57:52 85° 76° (ENE) 02:02:41 436.000
BEESAT 3 13 Feb 01:53:18 01:57:13 56° 239° (WSW) 02:01:03 437.485
BUGSAT 1 13 Feb 02:02:06 02:04:24 15° 298° (WNW) 02:06:41 437.445
YUBILEINY 13 Feb 02:06:05 02:12:34 24° 78° (ENE) 02:19:04 435.215
Oscar 19 13 Feb 02:07:09 02:12:17 65° 102° (ESE) 02:17:21 437.125/150
JAS-2 13 Feb 02:13:42 02:19:10 52° 99° (E) 02:24:14 435.910
STARS 13 Feb 02:14:12 02:16:04 13° 59° (ENE) 02:17:55 437.465
CUSAT 1 13 Feb 02:23:32 02:31:39 74° 282° (WNW) 02:39:27 437.405
BEESAT 2 13 Feb 02:23:51 02:27:39 42° 241° (WSW) 02:31:23 435.950
KKS-1 13 Feb 02:37:50 02:41:54 36° 69° (ENE) 02:45:59 437.445
SWISSCUBE 13 Feb 02:46:54 02:50:57 28° 265° (W) 02:55:04 437.505
MOZHAYETS 4 13 Feb 02:56:56 03:00:33 24° 65° (ENE) 03:04:12
Gurwin Techsat 1B 13 Feb 03:05:44 03:11:06 84° 104° (ESE) 03:16:26 435.225
AO-7 13 Feb 03:07:51 03:13:28 19° 89° (E) 03:19:02 29.400- 29.500
AIST 2 13 Feb 03:07:59 03:12:06 61° 52° (NE) 03:16:10 435.215
Cosmos 2491 13 Feb 03:09:39 03:18:18 66° 267° (W) 03:26:56 435.465 / 435.565
PHONESAT 2.4 13 Feb 03:21:07 03:24:04 31° 190° (S) 03:27:02 2401.200-2431.200
ITAMSAT 1 13 Feb 03:23:31 03:28:45 65° 102° (ESE) 03:33:57 435.822/435.867
Cosmos 2504 13 Feb 03:25:47 03:30:36 16° 73° (ENE) 03:35:27 435.465 / 435.565
DANDE 13 Feb 03:26:09 03:34:00 50° 289° (WNW) 03:42:10 436.750
ITUPSAT 1 13 Feb 03:27:45 03:30:04 13° 271° (W) 03:32:24 437.325
BEESAT 13 Feb 03:34:52 03:36:18 11° 272° (W) 03:37:46 436.000
SO-50 13 Feb 03:40:37 03:43:43 17° 109° (ESE) 03:46:51 436.795
STARS 13 Feb 03:47:26 03:51:49 80° 257° (WSW) 03:56:14 437.465
Oscar 19 13 Feb 03:47:35 03:51:06 19° 300° (WNW) 03:54:36 437.125/150
CUBESAT XI-V 13 Feb 03:50:52 03:51:16 10° 56° (ENE) 03:51:40 437.345
HORYU 2 13 Feb 03:56:06 03:57:29 11° 89° (E) 03:58:53 437.375
YUBILEINY 13 Feb 03:59:30 04:08:19 80° 279° (W) 04:17:14 435.215
JAS-2 13 Feb 03:59:32 04:03:53 23° 300° (WNW) 04:07:59 435.910
CUSAT 1 13 Feb 04:09:48 04:15:08 19° 301° (WNW) 04:20:15 437.405
KKS-1 13 Feb 04:14:56 04:18:34 24° 266° (W) 04:22:12 437.445
M-CUBED/EXP-1 PRIME 13 Feb 04:32:17 04:34:59 21° 102° (ESE) 04:37:47 437.505
MOZHAYETS 4 13 Feb 04:33:13 04:37:30 40° 262° (W) 04:41:51
AUBIESAT-1 13 Feb 04:38:52 04:41:36 21° 101° (ESE) 04:44:26 437.475
Gurwin Techsat 1B 13 Feb 04:47:14 04:50:21 16° 302° (WNW) 04:53:27 435.225
AIST 2 13 Feb 04:47:45 04:50:07 15° 250° (WSW) 04:52:29 435.215
AO-7 13 Feb 04:58:58 05:07:22 87° 109° (ESE) 05:15:40 29.400- 29.500
PHONESAT 2.4 13 Feb 04:59:03 05:00:46 14° 206° (SSW) 05:02:29 2401.200-2431.200
ITAMSAT 1 13 Feb 05:04:03 05:07:44 20° 300° (WNW) 05:11:23 435.822/435.867
Cosmos 2491 13 Feb 05:09:55 05:13:17 13° 289° (WNW) 05:16:41 435.465 / 435.565
Cosmos 2504 13 Feb 05:13:44 05:22:22 74° 95° (E) 05:31:16 435.465 / 435.565
DANDE 13 Feb 05:15:35 05:19:05 13° 310° (NW) 05:22:36 436.750
SO-50 13 Feb 05:18:45 05:23:40 73° 307° (NW) 05:28:39 436.795
CUBESAT XI-V 13 Feb 05:23:06 05:27:48 74° 75° (ENE) 05:32:32 437.345
HORYU 2 13 Feb 05:30:08 05:34:36 77° 285° (WNW) 05:39:03 437.375
Cubesat XI-IV 13 Feb 05:43:45 05:46:27 14° 88° (E) 05:49:08 437.490
STRAND 1 13 Feb 05:53:25 05:57:31 25° 63° (ENE) 06:01:39 437.568
YUBILEINY 13 Feb 06:00:51 06:06:44 19° 303° (WNW) 06:12:41 435.215
M-CUBED/EXP-1 PRIME 13 Feb 06:06:42 06:09:38 27° 296° (WNW) 06:12:43 437.505
AUBIESAT-1 13 Feb 06:13:11 06:16:12 28° 295° (WNW) 06:19:20 437.475
BRITE-PL 13 Feb 06:35:36 06:39:04 21° 90° (E) 06:42:21 437.365/2234.400
LilacSat-2 13 Feb 06:44:30 06:48:06 40° 98° (E) 06:51:40 437.200
AO-7 13 Feb 06:52:47 06:59:11 26° 310° (NW) 07:05:34 29.400- 29.500
PRISM 13 Feb 06:58:59 07:02:33 28° 67° (ENE) 07:06:09 437.425
SO-50 13 Feb 07:01:46 07:05:02 17° 328° (NNW) 07:08:19 436.795
CUBESAT XI-V 13 Feb 07:03:34 07:05:44 13° 272° (W) 07:07:54 437.345
CUTE-I 13 Feb 07:06:51 07:12:15 74° 103° (ESE) 07:17:37 437.470
Cosmos 2504 13 Feb 07:09:21 07:16:38 29° 296° (WNW) 07:24:06 435.465 / 435.565
HO-68 13 Feb 07:18:12 07:20:23 11° 84° (E) 07:22:34 435.675
Cubesat XI-IV 13 Feb 07:21:46 07:27:12 84° 286° (WNW) 07:32:35 437.490
GOMX 1 13 Feb 07:22:20 07:26:10 29° 95° (E) 07:29:49 467.674
STRAND 1 13 Feb 07:31:30 07:36:25 47° 261° (W) 07:41:24 437.568
GONETS M04 13 Feb 07:33:05 07:38:37 19° 76° (ENE) 07:44:09
O/OREOS (USA 219) 13 Feb 07:51:31 07:55:57 63° 110° (ESE) 08:00:26 437.305
CUTE 1.7 + AOD 2 13 Feb 08:02:30 08:05:20 17° 91° (E) 08:08:10 437.475
SEEDS 13 Feb 08:03:00 08:04:59 13° 89° (E) 08:06:57 437.485
BRITE-PL 13 Feb 08:13:24 08:17:50 41° 291° (WNW) 08:21:57 437.365/2234.400
Cosmos 2499 13 Feb 08:16:00 08:20:48 16° 74° (ENE) 08:25:35 435.465 / 435.565
LilacSat-2 13 Feb 08:19:41 08:22:08 17° 295° (WNW) 08:24:35 437.200
DOVE 4 13 Feb 08:22:26 08:26:39 65° 101° (ESE) 08:30:45 437.250
CUBEBUG 2 13 Feb 08:33:47 08:34:38 10° 88° (E) 08:35:29 437.445
PRISM 13 Feb 08:34:14 08:37:50 28° 264° (W) 08:41:29 437.425
AO-85 13 Feb 08:43:32 08:45:43 12° 105° (ESE) 08:47:55 145.980
CANX-2 13 Feb 08:47:13 08:51:28 56° 100° (E) 08:55:41 2200.000
CUTE-I 13 Feb 08:48:10 08:51:43 18° 301° (WNW) 08:55:14 437.470
CINEMA 3 13 Feb 08:49:28 08:53:26 42° 98° (E) 08:57:27 145.822/145.860
UNISAT 6 13 Feb 08:58:36 09:00:58 15° 62° (ENE) 09:03:21 437.425
GOMX 1 13 Feb 09:00:31 09:04:13 27° 294° (WNW) 09:07:46 467.674
HO-68 13 Feb 09:02:15 09:09:27 67° 103° (ESE) 09:16:35 435.675
Cubesat XI-IV 13 Feb 09:03:47 09:06:27 14° 304° (NW) 09:09:07 437.490
ZACube-1 13 Feb 09:10:54 09:13:12 14° 90° (E) 09:15:31 437.345
COMPASS 1 13 Feb 09:15:53 09:20:04 57° 100° (E) 09:24:14 437.405
FUNcube-1 13 Feb 09:17:40 09:20:20 16° 91° (E) 09:23:01 145.935
GONETS M04 13 Feb 09:25:24 09:34:06 87° 96° (E) 09:42:53
PCSat 13 Feb 09:29:57 09:33:20 17° 105° (ESE) 09:36:44 145.827
AIST 1 13 Feb 09:30:15 09:31:28 11° 82° (E) 09:32:41
O/OREOS (USA 219) 13 Feb 09:32:46 09:35:48 18° 310° (NW) 09:38:52 437.305
RS-15 13 Feb 09:34:41 09:40:46 16° 95° (E) 09:46:56 29.354- 29.394
SEEDS 13 Feb 09:36:53 09:41:07 63° 286° (WNW) 09:45:20 437.485
CUTE 1.7 + AOD 2 13 Feb 09:37:18 09:41:27 48° 288° (WNW) 09:45:35 437.475
AAUSAT CUBESAT 2 13 Feb 09:40:53 09:45:07 89° 96° (E) 09:49:19 437.432
ANTELSAT 13 Feb 09:41:39 09:45:37 38° 70° (ENE) 09:49:34 437.575/2403.000
Oscar 11 13 Feb 09:43:55 09:48:02 40° 98° (E) 09:52:08 145.826/435.025
TIGRISAT 13 Feb 09:47:08 09:51:09 41° 70° (ENE) 09:55:10 435.000
UWE-3 13 Feb 10:00:12 10:04:25 67° 102° (ESE) 10:08:42 435.000/436.395/437.385
DOVE 4 13 Feb 10:01:51 10:03:50 13° 300° (WNW) 10:05:48 437.250
POLYITAN 1 13 Feb 10:02:05 10:04:50 17° 63° (ENE) 10:07:35 437.675
QB50P2 13 Feb 10:02:26 10:05:16 18° 63° (ENE) 10:08:07 145.880/145.840
Cosmos 2499 13 Feb 10:03:36 10:12:20 73° 95° (E) 10:21:10 435.465 / 435.565
CUBEBUG 2 13 Feb 10:07:33 10:11:46 75° 285° (WNW) 10:16:03 437.445
AO-85 13 Feb 10:19:58 10:25:21 78° 124° (ESE) 10:30:53 145.980
CANX-2 13 Feb 10:24:16 10:26:54 16° 297° (WNW) 10:29:31 2200.000
DELFI C3 13 Feb 10:24:53 10:28:55 61° 101° (E) 10:32:55 145.870
CINEMA 3 13 Feb 10:27:26 10:30:20 19° 296° (WNW) 10:33:15 145.822/145.860
POPSAT HIP 1 13 Feb 10:30:07 10:33:51 31° 68° (ENE) 10:37:35 437.405
HUMSAT D 13 Feb 10:31:46 10:35:30 30° 96° (E) 10:39:15 437.325/437.525
DUCHIFAT 1 13 Feb 10:32:06 10:35:47 30° 68° (ENE) 10:39:28 145.980
NANOSAT C BR1 13 Feb 10:32:21 10:36:05 32° 69° (ENE) 10:39:51 145.865
UNISAT 6 13 Feb 10:32:59 10:37:14 61° 259° (W) 10:41:29 437.425
QB50P1 13 Feb 10:42:05 10:46:04 41° 71° (ENE) 10:50:03 145.935-145.965
ZACube-1 13 Feb 10:45:41 10:49:51 57° 286° (WNW) 10:54:04 437.345
HO-68 13 Feb 10:50:43 10:56:38 29° 303° (WNW) 11:02:33 435.675
COMPASS 1 13 Feb 10:52:43 10:55:12 15° 298° (WNW) 10:57:40 437.405
FUNcube-1 13 Feb 10:52:46 10:56:52 50° 288° (WNW) 11:01:02 145.935
AIST 1 13 Feb 11:04:00 11:08:24 73° 280° (W) 11:12:50
PCSat 13 Feb 11:10:40 11:16:05 76° 303° (WNW) 11:21:33 145.827
VELOX 1 13 Feb 11:10:53 11:13:37 16° 91° (E) 11:16:20 145.980
BUGSAT 1 13 Feb 11:16:50 11:20:52 49° 72° (ENE) 11:24:53 437.445
AAUSAT CUBESAT 2 13 Feb 11:19:10 11:19:56 10° 301° (WNW) 11:20:41 437.432
ANTELSAT 13 Feb 11:19:14 11:22:29 21° 267° (W) 11:25:44 437.575/2403.000
UKube-1 13 Feb 11:19:33 11:22:27 17° 92° (E) 11:25:21 .
CUSAT 1 13 Feb 11:19:37 11:22:34 14° 54° (NE) 11:25:10 437.405
Oscar 11 13 Feb 11:20:36 11:23:56 22° 295° (WNW) 11:27:16 145.826/435.025
TIGRISAT 13 Feb 11:24:58 11:28:03 19° 267° (W) 11:31:08 435.000
GONETS M04 13 Feb 11:25:41 11:32:10 23° 300° (WNW) 11:38:43
50 SAT 13 Feb 11:26:31 11:29:46 26° 96° (E) 11:33:02 437.505
AISAT 13 Feb 11:27:35 11:31:14 25° 95° (E) 11:34:49 437.250
CUBEBUG 1 13 Feb 11:36:02 11:39:38 25° 94° (E) 11:43:11 437.445
POLYITAN 1 13 Feb 11:36:12 11:40:18 50° 260° (W) 11:44:25 437.675
QB50P2 13 Feb 11:36:40 11:40:45 48° 261° (W) 11:44:52 145.880/145.840
DX 1 13 Feb 11:37:47 11:41:40 31° 96° (E) 11:45:32 434.975-435.025
UWE-3 13 Feb 11:38:19 11:40:24 14° 298° (WNW) 11:42:30 435.000/436.395/437.385
RS-15 13 Feb 11:39:41 11:50:42 70° 118° (ESE) 12:02:20 29.354- 29.394
Oscar 19 13 Feb 11:49:04 11:52:22 17° 59° (ENE) 11:55:40 437.125/150
Cosmos 2499 13 Feb 11:58:54 12:06:17 29° 296° (WNW) 12:13:45 435.465 / 435.565
DELFI C3 13 Feb 12:01:20 12:03:21 14° 298° (WNW) 12:05:22 145.870
AO-85 13 Feb 12:02:01 12:06:30 25° 323° (NW) 12:11:00 145.980
ESTCUBE 1 13 Feb 12:04:22 12:08:55 66° 101° (ESE) 12:13:25 437.505/2401.250
POPSAT HIP 1 13 Feb 12:06:09 12:09:39 25° 265° (W) 12:13:12 437.405
HUMSAT D 13 Feb 12:07:35 12:11:03 26° 293° (WNW) 12:14:32 437.325/437.525
DUCHIFAT 1 13 Feb 12:07:59 12:11:30 26° 265° (W) 12:15:02 145.980
NANOSAT C BR1 13 Feb 12:08:25 12:11:52 24° 265° (W) 12:15:20 145.865
SO-50 13 Feb 12:08:30 12:12:47 30° 41° (NE) 12:16:57 436.795
YUBILEINY 13 Feb 12:13:02 12:16:56 13° 51° (NE) 12:20:49 435.215
QB50P1 13 Feb 12:19:02 12:22:03 19° 268° (W) 12:25:04 145.935-145.965
DANDE 13 Feb 12:23:53 12:29:59 33° 64° (ENE) 12:34:47 436.750
JAS-2 13 Feb 12:26:37 12:33:09 35° 65° (ENE) 12:39:06 435.910
VELOX 1 13 Feb 12:46:07 12:50:26 53° 288° (WNW) 12:54:43 145.980
Gurwin Techsat 1B 13 Feb 12:50:29 12:54:39 24° 62° (ENE) 12:58:50 435.225
TISAT 1 13 Feb 12:51:35 12:54:48 21° 94° (E) 12:57:59 437.305
BUGSAT 1 13 Feb 12:53:57 12:56:32 16° 268° (W) 12:59:06 437.445
UKube-1 13 Feb 12:54:37 12:58:47 47° 289° (WNW) 13:02:55 .
PCSat 13 Feb 12:56:50 13:00:25 18° 325° (NW) 13:04:01 145.827
SPROUT 13 Feb 12:56:56 13:01:12 66° 101° (ESE) 13:05:25 437.525
CUSAT 1 13 Feb 13:00:25 13:06:03 78° 262° (W) 13:10:12 437.405
50 SAT 13 Feb 13:00:35 13:03:43 24° 292° (WNW) 13:06:50 437.505
AISAT 13 Feb 13:03:47 13:07:47 34° 292° (WNW) 13:11:45 437.250
ITAMSAT 1 13 Feb 13:06:20 13:09:48 18° 59° (ENE) 13:13:17 435.822/435.867
CUBEBUG 1 13 Feb 13:12:03 13:15:58 33° 292° (WNW) 13:19:52 437.445
DX 1 13 Feb 13:14:07 13:17:47 27° 294° (WNW) 13:21:25 434.975-435.025
Oscar 19 13 Feb 13:25:57 13:31:08 73° 258° (WSW) 13:36:19 437.125/150
ESTCUBE 1 13 Feb 13:42:33 13:45:13 16° 299° (WNW) 13:47:52 437.505/2401.250
ITUPSAT 1 13 Feb 13:46:37 13:49:39 16° 91° (E) 13:52:40 437.325
AO-85 13 Feb 13:48:25 13:49:01 10° 346° (NNW) 13:49:36 145.980
SO-50 13 Feb 13:48:52 13:53:29 46° 242° (WSW) 13:57:55 436.795
BEESAT 13 Feb 13:52:09 13:55:32 19° 92° (E) 13:58:55 436.000
RS-15 13 Feb 13:53:11 14:03:57 46° 325° (NW) 14:15:20 29.354- 29.394
DANDE 13 Feb 14:06:54 14:13:07 41° 272° (W) 14:17:54 436.750
YUBILEINY 13 Feb 14:07:19 14:16:04 58° 76° (ENE) 14:24:42 435.215
AO-7 13 Feb 14:08:37 14:15:57 36° 56° (NE) 14:23:17 29.400- 29.500
JAS-2 13 Feb 14:10:41 14:17:59 52° 261° (W) 14:24:36 435.910
Cosmos 2491 13 Feb 14:17:52 14:25:11 32° 83° (E) 14:32:30 435.465 / 435.565
ISS 13 Feb 14:25:16 14:27:36 18° 136° (SE) 14:29:55 145.825
TISAT 1 13 Feb 14:26:45 14:30:35 36° 291° (WNW) 14:34:24 437.305
Gurwin Techsat 1B 13 Feb 14:29:06 14:34:16 52° 260° (W) 14:39:29 435.225
SPROUT 13 Feb 14:34:28 14:36:40 14° 299° (WNW) 14:38:50 437.525
ITAMSAT 1 13 Feb 14:43:33 14:48:43 70° 257° (WSW) 14:53:57 435.822/435.867
SWISSCUBE 13 Feb 14:44:04 14:48:52 65° 102° (ESE) 14:53:38 437.505
